Regional Weather Roundup
Issued by NWS

Home | Current Version | Previous Version | Graphics & Text | Print | Product List | Glossary On
Versions: 1 2 3 4 5 6 7 8 9 10 11 12 13 14 15 16 17 18 19 20 21 22 23 24 25 26 27 28 29 30 31 32 33 34 35 36 37 38 39 40 41 42 43 44 45 46 47 48 49 50
000
ASUS45 KBOU 050807
RWRCO

WEATHER ROUNDUP FOR COLORADO
NATIONAL WEATHER SERVICE DENVER/BOULDER CO
200 AM MDT SAT SEP 05 2015

NOTE: "FAIR" INDICATES FEW OR NO CLOUDS BELOW 12000 FEET WITH NO
SIGNIFICANT WEATHER AND/OR OBSTRUCTIONS TO VISIBILITY.

COZ001>005-013-030-031-050900-
...NORTHWEST COLORADO...

CITY           SKY/WX    TMP DP  RH WIND       PRES   REMARKS
CRAIG          PTCLDY    50  44  80 CALM      30.08S
HAYDEN         PTCLDY    52  39  62 S8        30.09S
MEEKER         MOCLDY    57  48  72 CALM      30.09R
MOUNT WERNER   NOT AVBL
STEAMBOAT SPGS PTCLDY    51  44  76 CALM      30.12R
WALDEN         CLOUDY    50  43  76 CALM      30.17F
$$

COZ006>008-011-050900-
...WEST CENTRAL VALLEYS...

CITY           SKY/WX    TMP DP  RH WIND       PRES   REMARKS
GRAND JUNCTION LGT RAIN  58  53  84 E21       30.05F
MONTROSE       RAIN      56  52  86 NE5       30.18R
EAGLE          CLOUDY    55  52  88 CALM      30.16R
RIFLE          CLOUDY    58  54  86 W16       30.09R
DELTA          RAIN      60  52  75 W10G16    30.13R
NUCLA          CLOUDY    54  52  94 SE8       30.19F
$$

COZ017>023-064>068-050900-
...SOUTHWEST COLORADO...

CITY           SKY/WX    TMP DP  RH WIND       PRES   REMARKS
DURANGO        LGT RAIN  57  55  93 NE3       30.20S
CORTEZ         CLEAR     58  56  93 CALM      30.13S
PAGOSA SPRINGS RAIN      55  55  99 CALM      30.27S
TELLURIDE      CLOUDY    49  46  90 NW3       30.34R
WOLF CREEK PAS NOT AVBL
$$

COZ009-010-012-014-032>034-037-058>063-050900-
...CENTRAL COLORADO...

CITY           SKY/WX    TMP DP  RH WIND       PRES   REMARKS
ASPEN          CLOUDY    50  48  93 CALM      30.19R
BUENA VISTA    CLOUDY    52  49  89 CALM      30.21F
COPPER MTN     CLOUDY    46  36  66 S12G23    30.45R
BERTHOUD PASS  CLOUDY    37  28  70 W20       30.47S
COTTONWOOD PAS CLOUDY    52  41  66 W3        30.32F
GUNNISON       CLOUDY    52  48  87 N8        30.24F
KREMMLING      CLOUDY    52  48  87 CALM      30.18S
LEADVILLE      CLOUDY    44  44 100 E3        30.31F
MONARCH PASS   DRIZZLE   39  37  93 SW17      30.54F
SALIDA         CLOUDY    58  53  84 N5        30.27S
SUNLIGHT       CLOUDY    46  45  93 CALM      30.38S
WILKERSON PASS LGT RAIN  43  41  93 SW12G18   30.40S VSB 1/2
$$

COZ069>075-050900-
...SAN LUIS VALLEY/SANGRE DE CRISTO MOUNTAINS...

CITY           SKY/WX    TMP DP  RH WIND       PRES   REMARKS
ALAMOSA        CLOUDY    57  49  74 S13       30.20F
LA VETA PASS   CLOUDY    46  43  87 S13G23    30.32F
SAGUACHE       LGT RAIN  52  50  93 NW6       30.24F
$$

COZ035-036-038>040-050900-
...NORTHERN COLORADO FRONT RANGE...

CITY           SKY/WX    TMP DP  RH WIND       PRES   REMARKS
DENVER INTL AP MOCLDY    64  50  60 S9        29.95F
DMNS CITY PARK   N/A     68  49  49 E7        29.94S
AURORA         MOCLDY    65  50  60 S8        29.98F
FRONT RANGE AP NOT AVBL
ERIE MUNI ARPT CLOUDY    65  49  56 CALM      29.94S
BOULDER MUN AP CLOUDY    70  46  43 CALM      29.94S
CENTENNIAL     CLOUDY    69  47  45 SW16      29.99F
BROOMFIELD     CLOUDY    66  46  48 W3        29.97F
FORT COLLINS   CLOUDY    64  52  63 N7        29.94R
LONGMONT       CLOUDY    65  51  60 N5        29.95S
$$

COZ041-046-047-076>085-087-088-050900-
...PIKES PEAK/PALMER DIVIDE AND SOUTHERN FOOTHILLS...

CITY           SKY/WX    TMP DP  RH WIND       PRES   REMARKS
COLO. SPRINGS  MOCLDY    62  48  60 E5        30.04R
A. F. ACADEMY  MOCLDY    66  45  45 W3        30.05F
ELLICOTT       MOCLDY   N/A N/A N/A S12       30.03S
FALCON         MOCLDY    59  46  62 CALM      30.09F
FORT CARSON    PTCLDY    67  49  51 SW3       30.01R
LIMON          MOCLDY    65  50  58 SW5       29.99S
MONUMENT HILL  MOCLDY    59  46  63 W3        30.09F
TRINIDAD       MOCLDY    67  48  50 SW7       30.06F
$$

COZ042>045-048>051-090-091-050900-
...NORTHEAST COLORADO...

CITY           SKY/WX    TMP DP  RH WIND       PRES   REMARKS
GREELEY ARPT   MOCLDY    63  55  77 CALM      29.91F
AKRON          CLOUDY    70  55  59 SW7       29.90S
BURLINGTON     CLOUDY    73  48  41 S10       29.94S
WRAY           CLOUDY    80  49  32 S13G18    29.86S
STERLING       CLOUDY    68  61  77 CALM      29.85S
HOLYOKE        CLOUDY    70  59  68 S5        29.86F
FORT MORGAN    NOT AVBL
$$

COZ086-089-092>099-050900-
...SOUTHEAST COLORADO...

CITY           SKY/WX    TMP DP  RH WIND       PRES   REMARKS
PUEBLO         PTCLDY    71  51  49 SW6       29.96S
LA JUNTA       MOCLDY    76  48  37 SW10      29.95S
LAMAR          CLOUDY    74  51  44 S8        29.91S
SPRINGFIELD      N/A     71  51  49 S14       30.00S
$$




USA.gov is the U.S. government's official web portal to all federal, state and local government web resources and services.